Location: New Greens
(51.7702°N, 0.3379°W)
Time: 14:22:06
(UTC+00:00)

Envisat - Pass Details

Date: 29 January 2019
Orbit: 764 x 766 km, 98.2° (Epoch: 19 April)

Event Time Altitude Azimuth Distance (km) Brightness Sun altitude
Rises 17:29:51 0° 134° (SE) 3,224 6.0 -7.3°
Reaches altitude 10° 17:32:20 10° 124° (SE) 2,302 5.1 -7.7°
Maximum altitude 17:36:49 33° 63° (ENE) 1,286 3.7 -8.3°
Drops below altitude 10° 17:41:19 10° 1° (N) 2,317 5.3 -9.0°
Sets 17:43:49 0° 352° (N) 3,248 6.2 -9.3°
